Volver al catálogo

STARLINK-32873

ActivoComunicacionesVLEO
NORAD 62857·PAYLOAD·🇺🇸 United States

Lanzado Feb 1, 2025 desde Vandenberg Space Force Base

Loading…

Próximos Pases (próximas 24 horas)

TLE

ActualizadoSource: CelesTrak SupGP

Época: Sep 15, 2026, 03:40 UTC

1 62857C 25022D   26258.15326389  .00048692  00000+0  14381-2 0  2584
2 62857  53.1589 326.5351 0001304  85.2431 171.7992 15.34377545    18

Sigue STARLINK-32873 en tiempo real con AllMySat

Download on the App Store